Airfield :
LOGIN :

Register | Disclaimer

   EN    FR    IT 

 










Legend :    VFR   Marginal VFR   IFR   Intensive IFR   Very Intensive IFR
Visi :
Ceiling :
>= 8 km
>= 3000ft
5 to 8 km
1000 to 3000 ft
1500m to 5 km
500 to 1000 ft
800 to 1500m
200 to 500 ft
< 800m
< 200 ft
Symbols :   Thunderstorms  Fog  Heavy snow  Heavy precipitations  Wind > 20 kt
SIGMETs :     Misc.  Thunderstorms  Icing  Turbulence  Mountain Waves  Volcanic Ashes






- Airport Elevation : 1947 ft
- IATA code : OBF


EDMO - Oberpfaffenhofen

CURRENT METAR :
  • 260350Z AUTO 20002KT 9999 // NCD 04/04 Q1032

EXPIRED METARs :
  • 260320Z AUTO 21002KT 9000 // NCD 04/04 Q1032
  • 260250Z AUTO 00000KT 9999 // NCD 06/06 Q1032
  • 260220Z AUTO 20001KT 9999 // NCD 06/06 Q1032
  • 260150Z AUTO 20003KT 170V240 9999 // NCD 06/05 Q1032
  • 260120Z AUTO 15001KT 9999 // FEW073/// 07/06 Q1032
  • 260050Z AUTO 13003KT 9999 // FEW053/// SCT066/// 09/07 Q1032

Expired Forecast.



MET'MAP, your aeronautical weather chart ! - Copyright ORBIFLY December 2007 - Disclaimer

ORBIFLY MET'MAP TEAM :

Programming & Development : Alexandra Zaïnal
Concept & original design : Baudouin d'Aumeries
Assistance for programming : Marc-Olivier Méhu
Technical & hardware support : Manuel Goepfert

Contact : metmap@orbifly.com




SOURCES & CREDITS :

   NOAA